User: anonymous   Login
Location: Unspecified
(0.0000°N, 0.0000°E)
Time: 21:54:19
(UTC+00:00)
Language:

DNEPR OBJECT AF - Orbit

View from above orbital plane
View from above orbital plane
View from above satellite
View from above satellite

Ground track
Ground track

The orbit data is extracted from the following two-line orbital elements,

1 39445U 13066AF  17082.88929054 +.00000376 +00000-0 +53397-4 0  9991
2 39445 097.6431 130.1208 0058651 185.0452 175.0178 14.81243043178366
Epoch (UTC): 23 March 2017 21:20:34
Eccentricity: 0.0058651
inclination: 97.6431°
perigee height: 584 km
apogee height: 666 km
right ascension of ascending node: 130.1208°
argument of perigee: 185.0452°
revolutions per day: 14.81243043
mean anomaly at epoch: 175.0178°
orbit number at epoch: 17836

The dashed part of the orbit path shows where the satellite is in the earth's shadow,  

DLR